[[{"header":{"parameterUnit":"m.s-1","parameterCategory":1,"la1":30.2991,"la2":30.254,"lo1":-89.0895,"lo2":-89.0444,"dy":0.0017,"dx":0.0017,"nx":28,"ny":28,"refTime":"2025-07-22T09:00:00:Z","depth":0,"parameterNumber":2,"parameterNumberName":"U-component_of_WINDS"},"data":[0,0,0,0,0,0,0,0,0,0,0,0,0,0,0,0,0,0,0,0,0,0,0,0,0,0,0,0,0,0,0,0,0,0,0,0,0,0,0,0,0,0,0,0,0,0,0,0,0,0,0,0,0,0,0,0,0,0,2.0192,2.0192,0,2.0187,2.0187,2.0187,2.013,2.0128,2.0127,2.0126,2.0121,2.0122,2.0123,0,0,0,0,0,0,0,0,0,0,0,0,0,2.0153,2.0154,2.0192,2.0192,2.0192,2.0187,2.0187,2.0187,2.013,2.0128,2.0127,2.0125,2.012,2.0122,2.0123,0,0,0,0,0,0,0,0,0,0,0,0,0,2.0162,2.0155,2.0192,2.0163,2.016,2.0187,2.0187,2.0187,2.013,2.0128,2.0126,2.0124,2.012,2.0122,2.0123,2.0178,0,0,2.0129,2.013,0,0,0,0,0,0,0,0,2.0161,2.0163,2.0167,2.0165,2.0162,2.0157,2.0172,2.0184,2.0131,2.0142,2.0125,2.0123,2.0135,2.0135,2.0139,2.0178,2.0178,2.0129,2.013,2.0131,2.0132,0,0,0,0,0,0,0,2.0161,2.0163,2.019,2.0168,2.0164,2.0151,2.0149,2.0174,2.015,2.0141,2.0136,2.0137,2.0133,2.0137,2.0138,2.0178,2.0129,2.0131,2.0132,2.0133,2.0263,2.0265,0,0,0,0,0,0,2.0164,2.0163,2.019,2.019,2.0156,2.0153,2.0152,2.0161,2.015,2.0146,2.0139,2.0134,2.0135,2.0136,2.0138,2.0202,2.0131,2.0133,2.0134,2.026,2.0263,2.0266,0,0,0,0,0,0,2.0164,2.0167,2.0191,2.0175,2.0177,2.0156,2.0167,2.0162,2.0166,2.0148,2.0144,2.0147,2.0133,2.0135,2.0169,2.0201,2.0134,2.0135,2.0258,2.0261,2.0264,2.033,0,0,0,0,0,0,2.0163,2.0167,2.0187,2.0176,2.0178,2.0221,2.0169,2.0163,2.017,2.0164,2.0155,2.0152,2.0132,2.0166,2.0171,2.0202,2.0137,2.0255,2.0259,2.0263,2.0325,2.0336,2.0345,0,0,0,0,0,2.0161,2.0206,2.0189,2.0192,2.0203,2.0223,2.0225,2.02,2.0172,2.0193,2.0182,2.0152,2.0197,2.017,2.0175,2.0207,2.0252,2.0258,2.0263,2.0321,2.0334,2.0345,0,0,0,0,0,0,2.0221,2.0204,2.0185,2.0227,2.0227,2.0214,2.0238,2.0215,2.0223,2.0217,2.0187,2.0185,2.0224,2.0219,2.0189,2.026,2.022,2.0226,2.0262,2.0274,2.0284,2.0284,2.0138,0,0,0,0,0,2.0239,2.0257,2.0241,2.028,2.0281,2.026,2.0268,2.0249,2.0248,2.0248,2.0239,2.024,2.0254,2.0264,2.0276,2.0324,2.0322,2.0349,2.0359,2.0367,2.0373,2.04,2.0412,2.0283,2.0283,2.0283,0,0,2.0276,2.0269,2.0282,2.0291,2.0289,2.0309,2.026,2.0283,2.0297,2.0251,2.0283,2.0277,2.0275,2.0317,2.0335,2.0314,2.0408,2.0374,2.038,2.0382,2.0406,2.0418,2.0429,2.0287,2.0286,2.0286,0,0,2.0355,2.0351,2.0383,2.0383,2.038,2.0366,2.0375,2.0365,2.0359,2.039,2.0357,2.0374,2.0399,2.0399,2.0403,2.0483,2.0457,2.0488,2.0539,2.0565,2.0576,2.0584,2.0614,2.0625,2.0494,2.0494,2.0494,0,2.0401,2.0429,2.0403,2.0428,2.0433,2.0394,2.0427,2.0427,2.0429,2.0434,2.0411,2.0442,2.0438,2.048,2.05,2.0504,2.0513,2.0489,2.0576,2.0585,2.0593,2.062,2.0632,2.0498,2.0498,2.0497,2.0497,0,2.0487,2.0507,2.0534,2.0537,2.0546,2.0575,2.0553,2.0565,2.0547,2.0535,2.0568,2.0562,2.0573,2.0582,2.0563,2.0622,2.0609,2.0581,2.054,2.0609,2.0635,2.0645,2.0504,2.0502,2.0501,2.05,0,0,2.0602,2.0591,2.0602,2.0603,2.0599,2.0614,2.0642,2.0652,2.0664,2.0667,2.069,2.0712,2.0688,2.0692,2.0673,2.0696,2.0762,2.0666,2.0666,2.0685,2.0827,2.0848,2.086,2.0745,2.0746,2.0748,2.0827,0,2.0678,2.0724,2.0702,2.0751,2.077,2.0734,2.0758,2.0758,2.0749,2.0764,2.0753,2.077,2.0736,2.0738,2.0759,2.0749,2.079,2.0743,2.0766,2.0767,2.0768,2.0874,2.0896,2.097,2.0837,2.0839,2.084,0,2.0772,2.078,2.0832,2.0825,2.0832,2.0854,2.0863,2.0877,2.0878,2.0869,2.0875,2.0852,2.0879,2.0838,2.0876,2.0845,2.0853,2.085,2.0852,2.0853,2.0808,2.0878,2.0994,2.1005,2.0855,2.0854,2.0853,0,2.0852,2.0875,2.0909,2.0912,2.0904,2.0921,2.0919,2.0917,2.0925,2.0933,2.0939,2.0949,2.0956,2.0965,2.0946,2.0917,2.0987,2.0944,2.0981,2.0982,2.0997,2.0996,2.1116,2.1002,2.1002,2.1002,2.1001,0,2.0939,2.0972,2.0945,2.0966,2.1002,2.0977,2.1014,2.1008,2.1007,2.1026,2.0995,2.1014,2.0987,2.1004,2.0989,2.1023,2.1026,2.1021,2.1016,2.1024,2.1025,2.1029,2.1023,2.1005,2.1004,2.1003,2.1003,0,2.1033,2.1016,2.1051,2.1042,2.1041,2.1068,2.1061,2.108,2.1069,2.1095,2.1099,2.1082,2.11,2.1082,2.1099,2.1089,2.1135,2.1123,2.1135,2.1132,2.1171,2.1168,2.1297,2.1313,2.1189,2.119,2.1191,0,2.109,2.1115,2.1109,2.112,2.112,2.1138,2.1147,2.1124,2.1134,2.1137,2.1156,2.1172,2.1183,2.1214,2.1204,2.1217,2.1205,2.125,2.1207,2.1214,2.1207,2.1206,2.1208,2.1258,2.126,2.1261,2.1262,0,2.1193,2.1184,2.1198,2.1209,2.1221,2.1228,2.1234,2.1245,2.122,2.1234,2.1252,2.1261,2.1279,2.1296,2.1306,2.1304,2.128,2.1276,2.1285,2.1293,2.1299,2.1297,2.116,2.1273,2.1272,2.1271,2.127,2.127,2.1271,2.1292,2.1292,2.1308,2.131,2.1316,2.1334,2.1326,2.1341,2.1354,2.1339,2.1363,2.1363,2.1374,2.1376,2.1394,2.1375,2.1388,2.1392,2.1396,2.1402,2.1297,2.1395,2.1395,2.1395,2.1395,2.1394,0,2.1373,2.1372,2.1387,2.1396,2.141,2.1386,2.1391,2.1404,2.1424,2.1427,2.1439,2.1461,2.1478,2.1469,2.1483,2.1499,2.1488,2.1504,2.1502,2.1502,2.1417,2.1408,2.1512,2.1512,2.1512,2.1512,2.1512,2.1512,2.1428,2.1462,2.1453,2.1489,2.1487,2.1509,2.1514,2.152,2.1522,2.1549,2.1562,2.1556,2.1555,2.1568,2.1582,2.1579,2.1586,2.1606,2.1599,2.152,2.1508,2.1497,2.1488,2.1607,2.1608,2.1683,2.1683,2.1684]},{"header":{"parameterUnit":"m.s-1","parameterCategory":1,"la1":30.2991,"la2":30.254,"lo1":-89.0895,"lo2":-89.0444,"dy":0.0017,"dx":0.0017,"nx":28,"ny":28,"refTime":"2025-07-22T09:00:00:Z","depth":0,"parameterNumber":3,"parameterNumberName":"V-component_of_WINDS"},"data":[0,0,0,0,0,0,0,0,0,0,0,0,0,0,0,0,0,0,0,0,0,0,0,0,0,0,0,0,0,0,0,0,0,0,0,0,0,0,0,0,0,0,0,0,0,0,0,0,0,0,0,0,0,0,0,0,0,0,-2.8744,-2.8745,0,-2.8858,-2.886,-2.8861,-2.8862,-2.8861,-2.8859,-2.8858,-2.8974,-2.8978,-2.8983,0,0,0,0,0,0,0,0,0,0,0,0,0,-2.8527,-2.8531,-2.8744,-2.8745,-2.8747,-2.8858,-2.886,-2.8861,-2.8863,-2.8861,-2.8859,-2.8857,-2.8973,-2.8978,-2.8983,0,0,0,0,0,0,0,0,0,0,0,0,0,-2.8629,-2.8532,-2.8744,-2.8761,-2.8764,-2.8858,-2.886,-2.8862,-2.8863,-2.8861,-2.8859,-2.8857,-2.8971,-2.8977,-2.8984,-2.9068,0,0,-2.9004,-2.9007,0,0,0,0,0,0,0,0,-2.8623,-2.8637,-2.8757,-2.876,-2.8763,-2.8844,-2.8826,-2.8931,-2.8863,-2.8825,-2.8858,-2.8856,-2.8932,-2.8942,-2.8968,-2.9074,-2.9079,-2.9005,-2.9009,-2.9012,-2.9014,0,0,0,0,0,0,0,-2.8616,-2.8632,-2.8789,-2.8759,-2.8762,-2.8763,-2.8775,-2.8846,-2.8889,-2.8828,-2.8829,-2.8842,-2.8934,-2.8962,-2.8971,-2.908,-2.9005,-2.901,-2.9015,-2.9017,-2.9262,-2.9265,0,0,0,0,0,0,-2.8606,-2.8626,-2.8785,-2.8792,-2.8686,-2.8769,-2.8782,-2.882,-2.8889,-2.8897,-2.8844,-2.8842,-2.8952,-2.8963,-2.8975,-2.9079,-2.9012,-2.9018,-2.9022,-2.926,-2.9263,-2.9266,0,0,0,0,0,0,-2.8601,-2.862,-2.8781,-2.871,-2.873,-2.8775,-2.8817,-2.8823,-2.8852,-2.8901,-2.8908,-2.8865,-2.895,-2.8966,-2.9046,-2.9083,-2.9021,-2.9027,-2.9257,-2.9261,-2.9264,-2.9288,0,0,0,0,0,0,-2.8595,-2.8618,-2.8651,-2.871,-2.8734,-2.8849,-2.882,-2.8827,-2.8863,-2.8862,-2.8922,-2.893,-2.895,-2.9036,-2.9052,-2.9091,-2.9032,-2.9254,-2.9259,-2.9263,-2.9284,-2.9292,-2.9299,0,0,0,0,0,-2.8587,-2.8652,-2.8652,-2.8671,-2.8775,-2.8851,-2.8865,-2.8887,-2.8866,-2.8899,-2.8931,-2.8928,-2.9077,-2.9044,-2.9062,-2.9104,-2.9251,-2.9257,-2.9263,-2.9281,-2.9291,-2.9299,0,0,0,0,0,0,-2.8595,-2.866,-2.8661,-2.8747,-2.8794,-2.8852,-2.8894,-2.8896,-2.8949,-2.8945,-2.897,-2.8984,-2.9063,-2.9092,-2.9054,-2.919,-2.9162,-2.9171,-2.9169,-2.9179,-2.9186,-2.9177,-2.9038,0,0,0,0,0,-2.8607,-2.8663,-2.8717,-2.8788,-2.8811,-2.8849,-2.8883,-2.8896,-2.8945,-2.8964,-2.9002,-2.905,-2.9107,-2.9144,-2.92,-2.9288,-2.9302,-2.9327,-2.9334,-2.934,-2.9348,-2.9398,-2.941,-2.9284,-2.9284,-2.9284,0,0,-2.8631,-2.8674,-2.8708,-2.8791,-2.8828,-2.8887,-2.8865,-2.8927,-2.8971,-2.8974,-2.9052,-2.9081,-2.9136,-2.9221,-2.926,-2.9247,-2.9386,-2.9347,-2.9352,-2.9357,-2.9405,-2.9417,-2.9428,-2.9288,-2.9288,-2.9287,0,0,-2.8706,-2.8744,-2.8808,-2.8846,-2.8904,-2.8929,-2.8944,-2.9002,-2.9022,-2.9101,-2.9105,-2.9157,-2.9255,-2.9295,-2.9328,-2.942,-2.942,-2.9438,-2.9477,-2.9525,-2.9535,-2.9544,-2.9578,-2.959,-2.9445,-2.9445,-2.9446,0,-2.8729,-2.8817,-2.884,-2.8903,-2.894,-2.8946,-2.9011,-2.9048,-2.912,-2.9146,-2.913,-2.9255,-2.9292,-2.9387,-2.941,-2.9436,-2.9455,-2.943,-2.9532,-2.9541,-2.955,-2.9582,-2.9595,-2.9447,-2.9447,-2.9447,-2.9447,0,-2.8844,-2.8905,-2.895,-2.9021,-2.9063,-2.9126,-2.9159,-2.9199,-2.9208,-2.9235,-2.9316,-2.9361,-2.9427,-2.945,-2.946,-2.9547,-2.9538,-2.9527,-2.9498,-2.9563,-2.9594,-2.9607,-2.945,-2.9449,-2.9449,-2.9448,0,0,-2.8925,-2.901,-2.9026,-2.9059,-2.9124,-2.9172,-2.9236,-2.9301,-2.9335,-2.9386,-2.9441,-2.9525,-2.9516,-2.9554,-2.9568,-2.9611,-2.9682,-2.9595,-2.9597,-2.961,-2.9783,-2.979,-2.9804,-2.9683,-2.9685,-2.9687,-2.9778,0,-2.9008,-2.9123,-2.9146,-2.9246,-2.9303,-2.9311,-2.9367,-2.9414,-2.9441,-2.9493,-2.9523,-2.9583,-2.9566,-2.9589,-2.9632,-2.9664,-2.9717,-2.9658,-2.9735,-2.9737,-2.9721,-2.982,-2.9829,-2.9912,-2.979,-2.9792,-2.9794,0,-2.9119,-2.9173,-2.9279,-2.9338,-2.9363,-2.9413,-2.9476,-2.9526,-2.9579,-2.9596,-2.9639,-2.9649,-2.9717,-2.9686,-2.978,-2.974,-2.9772,-2.9794,-2.9797,-2.9805,-2.9769,-2.9832,-2.994,-2.9952,-2.9813,-2.9812,-2.981,0,-2.9169,-2.9268,-2.9345,-2.9373,-2.9443,-2.9479,-2.951,-2.9561,-2.9599,-2.9654,-2.9679,-2.974,-2.9774,-2.9822,-2.9848,-2.9823,-2.9941,-2.9912,-2.9958,-2.9957,-2.9982,-2.998,-3.0097,-3.0003,-3.0002,-3.0002,-3.0002,0,-2.9258,-2.9323,-2.9369,-2.9416,-2.9489,-2.9515,-2.9587,-2.9617,-2.9663,-2.9717,-2.9727,-2.9777,-2.9809,-2.9864,-2.9886,-2.9962,-2.9977,-2.9992,-2.9997,-2.9992,-2.999,-3.0013,-3.0008,-3.0006,-3.0005,-3.0004,-3.0004,0,-2.9326,-2.9359,-2.9443,-2.9504,-2.9521,-2.9572,-2.9624,-2.967,-2.9698,-2.9766,-2.9783,-2.9827,-2.9892,-2.9924,-3.0004,-3.0019,-3.0105,-3.0106,-3.0087,-3.0089,-3.0133,-3.0129,-3.027,-3.029,-3.0182,-3.0183,-3.0184,0,-2.9381,-2.9431,-2.9498,-2.9535,-2.9567,-2.9626,-2.9666,-2.9694,-2.9735,-2.98,-2.9839,-2.9905,-2.9959,-3.0063,-3.0102,-3.0165,-3.0167,-3.0213,-3.0177,-3.017,-3.0169,-3.0166,-3.0171,-3.0219,-3.022,-3.0221,-3.0221,0,-2.9476,-2.949,-2.9546,-2.961,-2.9657,-2.9707,-2.9757,-2.9787,-2.9823,-2.9869,-2.9936,-2.9979,-3.0062,-3.0128,-3.0193,-3.0225,-3.023,-3.0233,-3.0247,-3.0241,-3.0229,-3.0237,-3.0105,-3.0229,-3.0228,-3.0228,-3.0227,-3.0227,-2.9539,-2.9585,-2.9639,-2.9702,-2.9743,-2.979,-2.9837,-2.9871,-2.9928,-2.9999,-3.0012,-3.0084,-3.0138,-3.0226,-3.0261,-3.0318,-3.0307,-3.0327,-3.0333,-3.0337,-3.034,-3.022,-3.033,-3.0329,-3.0329,-3.0329,-3.0329,0,-2.9635,-2.9671,-2.9729,-2.9799,-2.9849,-2.9849,-2.9905,-2.9947,-3.001,-3.006,-3.0114,-3.0192,-3.0257,-3.0301,-3.0367,-3.0404,-3.0408,-3.042,-3.0418,-3.0425,-3.0345,-3.0327,-3.0416,-3.0416,-3.0416,-3.0416,-3.0416,-3.0416,-2.9691,-2.9768,-2.9789,-2.9887,-2.9923,-2.9994,-3.0026,-3.0069,-3.0109,-3.0197,-3.025,-3.0279,-3.0328,-3.0397,-3.0456,-3.0468,-3.0492,-3.0505,-3.0516,-3.044,-3.0431,-3.0422,-3.0405,-3.0509,-3.051,-3.0592,-3.0593,-3.0593]}]]